Regional Weather Roundup
Issued by NWS

Home | Current Version | Previous Version | Text Only | Print | Product List | Glossary On
Versions: 1 2 3 4 5 6 7 8 9 10 11 12 13 14 15 16 17 18 19 20 21 22 23 24 25 26 27 28 29 30 31 32 33 34 35 36 37 38 39 40 41 42 43 44 45 46 47 48 49 50
000
ASUS43 KDTX 260701
RWRMI
MICHIGAN HOURLY REGIONAL WEATHER ROUNDUP
NATIONAL WEATHER SERVICE DETROIT/PONTIAC MI
300 AM EDT MON JUN 26 2017

NOTE: "FAIR" INDICATES FEW OR NO CLOUDS BELOW 12,000 FEET WITH NO
SIGNIFICANT WEATHER AND/OR OBSTRUCTION TO VISIBILITY.

MIZ047>049-052>055-059>063-066>070-074>076-081>083-260800-
SOUTHEAST LOWER MICHIGAN

CITY           SKY/WX    TMP DP  RH WIND       PRES   REMARKS
ADRIAN         PTCLDY    54  47  77 W5        30.05F
ALMA           CLOUDY    54  51  90 W10       30.00F
ANN ARBOR      PTCLDY    46  45  96 SW5       30.03S
BAD AXE        CLOUDY    56  54  92 SW3       29.98S
CARO           PTCLDY    54  53  96 SW3       29.98S
DETROIT CITY   CLEAR     58  47  66 W6        30.01F
DETROIT        PTCLDY    56  47  71 SW5       30.03F
FLINT          CLEAR     55  49  80 SW7       30.00F
GROSSE ILE     PTCLDY    58  47  66 W6        30.01F
HILLSDALE      MOCLDY    54  46  76 SW3       30.05S
HOWELL         CLEAR     53  46  78 SW3       30.02S

CITY           SKY/WX    TMP DP  RH WIND       PRES   REMARKS
JACKSON        MOCLDY    56  48  74 W7        30.04S
LAMBERTVILLE   PTCLDY    52  48  84 CALM      30.03F
LANSING        PTCLDY    56  49  77 SW8       30.02F
LAPEER         FAIR      56  51  83 SW3       30.00S
MASON          CLEAR     55  49  80 CALM      30.03S
MONROE         PTCLDY    56  47  73 W3        30.03S
MT. CLEMENS    CLEAR     57  50  78 SW7       29.99F
PONTIAC        CLEAR     55  50  83 W3        30.00F
PORT HOPE        N/A     58  54  86 SW3       29.95F
PORT HURON     CLOUDY    55  52  88 CALM      30.00S
TRI CITIES     CLEAR     57  54  89 SW8       29.99F
MIDLAND        MOCLDY    56  53  88 SW3       29.98F
TROY           CLEAR     57  48  71 SW5       30.03S
SAGINAW HB     PTCLDY    55  50  82 SW8       29.98F
$$
MIZ043>046-050>051-056>058-064>065-071>073-077>080-260800-
SOUTHWEST LOWER MICHIGAN

CITY           SKY/WX    TMP DP  RH WIND       PRES   REMARKS
BATTLE CREEK   CLEAR     55  51  86 W9        30.05S
BENTON HARBOR  CLOUDY    61  52  72 NW9       30.07S
BIG RAPIDS     MOCLDY    54  51  90 W9        29.99F
COLDWATER      CLOUDY    57  50  77 SW5       30.06S
FREMONT        MOCLDY    53  53 100 SW5       30.01F
HOLLAND        CLOUDY    60  53  77 NW10      30.05S
GRAND RAPIDS   PTCLDY    57  53  86 W9        30.02F
IONIA          FAIR      53  50  90 W7        30.01F
KALAMAZOO      PTCLDY    55  49  80 SW7       30.06S
LUDINGTON      CLOUDY    57  52  84 W10       30.00S
MARSHALL       CLEAR     56  50  81 SW6       30.04F
MOUNT PLEASANT MOCLDY    55  51  85 CALM      29.98F
MUSKEGON       PTCLDY    59  54  83 W13       30.02F
SOUTH HAVEN    CLOUDY    61  54  78 NW9G16    30.06S
$$
MIZ016>042-260800-
NORTHERN LOWER MICHIGAN

CITY           SKY/WX    TMP DP  RH WIND       PRES   REMARKS
ALPENA         CLOUDY    56  56 100 CALM      29.95F
BEAVER ISLAND  RAIN      54  54  99 CALM      29.94F
BELLAIRE       CLOUDY    52  51  95 CALM      29.95F
CADILLAC       CLOUDY    54  52  94 W7        29.97F
CHARLEVOIX     RAIN      56  56 100 CALM      29.97F
FRANKFORT      MOCLDY    57  53  86 W9        29.95F
GAYLORD        MOCLDY    51  47  86 CALM      29.96F
GRAYLING       MOCLDY    53  51  94 CALM      29.97F
HARBOR SPRINGS CLOUDY    55  55 100 CALM      29.95S
HOUGHTON LAKE  CLOUDY    56  51  84 W8        29.98F
MANISTEE       MOCLDY    56  52  86 W13       29.98F
OSCODA         MOCLDY    54  53  95 SW5       29.95F
PELLSTON       CLOUDY    53  50  89 CALM      29.95F
ROGERS CITY    CLOUDY    55  54  94 W3        29.96F
TRAVERSE CITY  CLOUDY    58  53  84 CALM      29.94F
$$
MIZ007>008-015-260800-
EASTERN UPPER MICHIGAN

CITY           SKY/WX    TMP DP  RH WIND       PRES   REMARKS
KINROSS        CLOUDY    52  50  93 N3        29.95F
MACKINAC ISLAN CLOUDY    55  55 100 CALM      29.94F
NEWBERRY       CLOUDY    49  48  97 N6        29.95S
S. S. MARIE    CLOUDY    54  52  93 CALM      29.95F
MUNISING         N/A     52  51  97 NW9       29.96S
$$
MIZ004>006-011>014-085-260800-
CENTRAL UPPER MICHIGAN

CITY           SKY/WX    TMP DP  RH WIND       PRES   REMARKS
MANISTIQUE     RAIN      50  47  90 N9        29.95S
ESCANABA       CLOUDY    53  52  96 W5        29.96S
MENOMINEE      CLEAR     50  49  96 VRB3      29.99S
SAWYER-GWINN   CLOUDY    50  49  97 N3        29.96F
$$
MIZ001>003-009>011-084-260800-
WESTERN UPPER MICHIGAN

CITY           SKY/WX    TMP DP  RH WIND       PRES   REMARKS
IRON MOUNTAIN  CLOUDY    50  46  86 NW6       29.96F
HOUGHTON       LGT RAIN  47  45  93 NW6       29.97F
COPPER HARBOR    N/A     49  48  97 N3        29.98F
IRONWOOD       LGT RAIN  46  45  96 NW10      30.04F FOG
$$

ABBREVIATIONS USED IN REMARKS
   TC - TEMPERATURE IN CELSIUS
  WCI - WIND CHILL INDEX
   HX - HEAT INDEX
  VSB - VISIBILITY




USA.gov is the U.S. government's official web portal to all federal, state and local government web resources and services.